Location: ??
(34.7707°N, 135.6540°E)
Time: 05:38:57
(UTC+00:00)

Cosmos 2297 Rocket - Pass Details

Date: 09 April 2020
Orbit: 841 x 842 km, 71.0° (Epoch: 05 June)

Event Time Altitude Azimuth Distance (km) Brightness Sun altitude
Exits shadow 17:20:47 29° 3° (N) 1,487 3.7 -35.7°
Drops below altitude 10° 17:23:34 10° 14° (NNE) 2,464 5.2 -35.3°
Sets 17:26:04 0° 18° (NNE) 3,403 6.1 -34.9°
